#timestamp,LO_Frequency,Hit,StdDev 
1579028415.2,286046999.9,N
1579028435.0,286047001.8,N
1579028435.9,286047001.8,N
1579028455.8,286047001.5,N
1579028475.6,286047002.1,N
1579028495.4,286046999.8,N
1579028515.3,286047000.0,N
1579028535.1,286047002.0,N
1579028555.9,286047003.9,N
1579028575.7,286047001.9,N
1579028595.5,286047000.7,N
1579028615.4,286047001.1,N
1579028635.2,286047003.7,N
1579028655.0,286047001.3,N
1579028655.9,286047001.3,N
1579028675.8,286047002.2,N
1579028695.6,286047000.0,N
1579028715.5,286047000.1,N
1579028735.3,286047001.1,N
1579028755.1,286047000.0,N
1579028775.9,286046999.8,N
1579028795.7,286046998.4,N
1579028815.5,286046996.7,N
1579028835.4,286046996.5,N
1579028855.2,286046999.5,N
1579028875.0,286046999.5,N
1579028876.0,286046999.5,N
1579028895.8,286046998.7,N
1579028915.6,286046999.3,N
1579028935.5,286046998.6,N
1579028955.3,286046996.9,N
1579028975.1,286046999.5,N
1579028995.9,286046996.9,N
1579029015.7,286046998.1,N
1579029035.6,286046999.9,N
1579029055.4,286047002.5,N
1579029075.2,286047002.1,N
1579029095.1,286047001.7,N
1579029096.0,286047001.7,N
1579029115.8,286047002.3,N
1579029135.6,286046998.6,N
1579029155.5,286047000.3,N
1579029175.3,286046998.2,N
1579029195.1,286046999.0,N
1579029215.9,286046996.8,N
1579029235.7,286046997.1,N
1579029255.6,286047000.4,N
1579029275.4,286047000.3,N
1579029295.2,286047000.7,N
1579029315.1,286046998.4,N
1579029316.0,286046998.4,N
1579029335.8,286047000.9,N
1579029355.7,286046999.9,N
1579029375.5,286046998.9,N
1579029395.3,286046996.5,N
1579029415.2,286046999.2,N
1579029435.9,286047000.5,N
1579029455.7,286047002.0,N
1579029475.6,286047004.1,N
1579029495.4,286047003.8,N
1579029515.2,286047001.9,N
1579029535.1,286047004.1,N
1579029536.0,286047004.1,N
1579029555.8,286047004.1,N
1579029575.7,286047001.6,N
1579029595.5,286047002.2,N
1579029615.3,286047004.0,N
1579029635.2,286047003.1,N
1579029655.0,286047003.0,N
1579029655.9,286047003.0,N
1579029675.8,286047003.1,N
1579029695.6,286047005.7,N
1579029715.4,286047004.7,N
1579029735.3,286047004.2,N
1579029755.1,286047003.3,N
1579029775.8,286047003.4,N
1579029795.7,286047003.5,N
1579029815.5,286047004.0,N
1579029835.3,286047003.3,N
1579029855.2,286047005.5,N
1579029875.0,286047005.6,N
1579029875.9,286047005.6,N
1579029895.8,286047004.4,N
1579029915.6,286047001.0,N
1579029935.4,286047002.8,N
1579029955.3,286047002.4,N
1579029975.1,286047000.3,N
1579029995.8,286047002.4,N
1579030015.7,286047001.2,N
1579030035.5,286047000.7,N
1579030055.4,286047002.2,N
1579030075.2,286047001.8,N
1579030095.0,286047004.0,N
1579030095.9,286047004.0,N
1579030115.8,286047001.4,N
1579030135.6,286047001.5,N
1579030155.5,286047001.7,N
1579030175.3,286047003.7,N
1579030195.1,286047007.5,Y
1579030215.9,286047002.5,P
1579030235.7,286047000.5,N
1579030255.5,286047000.3,N
1579030275.4,286046998.8,N
1579030295.2,286046994.9,Y
1579030315.1,286046995.8,P
1579030316.0,286046995.8,N
1579030335.8,286046994.9,N
1579030355.6,286046996.6,N
1579030375.5,286046995.2,N
1579030395.3,286046995.7,N
1579030415.1,286046999.5,N
1579030435.9,286047000.0,N
1579030455.7,286047001.0,N
1579030475.6,286047000.0,N
1579030495.4,286047000.7,N
1579030515.2,286047001.9,N
1579030535.1,286047000.5,N
1579030536.0,286047000.5,N
1579030555.8,286046996.6,N
1579030575.6,286046997.7,N
1579030595.5,286046997.8,N
1579030615.3,286046995.9,N
1579030635.2,286046997.6,N
1579030655.9,286046997.6,N
1579030675.7,286046996.6,N
1579030695.6,286046997.2,N
1579030715.4,286046997.5,N
1579030735.2,286046999.2,N
1579030755.1,286046997.5,N
1579030756.0,286046997.5,N
1579030775.8,286046993.4,Y
1579030795.7,286046996.2,P
1579030815.5,286046992.1,P
1579030835.3,286046990.9,P
1579030855.2,286046989.1,Y
1579030875.0,286046993.9,P
1579030875.9,286046993.9,P
1579030895.8,286046997.8,P
1579030915.6,286046995.3,N
1579030935.4,286046995.2,Y
1579030955.3,286047001.3,P
1579030975.1,286047003.8,N
1579030995.9,286047001.8,N
1579031015.7,286047001.6,N
1579031035.5,286047002.3,N
1579031055.4,286047001.9,N
1579031075.2,286046999.8,N
1579031095.0,286047001.8,N
1579031095.9,286047001.8,N
1579031115.8,286047000.0,N
1579031135.6,286047001.6,N
1579031155.5,286047004.0,N
1579031175.3,286047003.3,N
1579031195.1,286047004.9,N
1579031215.9,286047005.7,N
1579031235.7,286047007.5,Y
1579031255.5,286047002.0,P
1579031275.4,286047002.8,P
1579031295.2,286047002.0,P
1579031315.1,286047004.4,Y
1579031316.0,286047004.4,P
1579031335.8,286047000.7,N
1579031355.6,286046998.7,N
1579031375.5,286047000.1,N
1579031395.3,286047001.1,N
1579031415.2,286046997.4,N
1579031435.9,286046996.5,N
1579031455.7,286046996.6,N
1579031475.6,286047000.6,N
1579031495.4,286047000.0,N
1579031515.2,286047000.0,N
1579031535.1,286047000.5,N
1579031536.0,286047000.5,N
1579031555.8,286046999.8,N
1579031575.7,286046999.7,N
1579031595.5,286047002.4,N
1579031615.3,286047001.5,N
1579031635.2,286047003.1,N
1579031655.0,286047003.7,N
1579031655.9,286047003.7,N
1579031675.8,286047001.5,N
1579031695.6,286047001.5,N
1579031715.4,286047000.6,N
1579031735.3,286047000.6,N
1579031755.1,286046999.2,N
1579031775.8,286046999.6,N
1579031795.7,286047000.8,N
1579031815.5,286047000.6,N
1579031835.4,286046998.8,N
1579031855.2,286046999.1,N
1579031875.0,286046997.7,N
1579031875.9,286046997.7,N
1579031895.8,286046999.5,N
1579031915.6,286046996.5,N
1579031935.5,286046997.0,N
1579031955.3,286046999.4,N
1579031975.1,286046999.2,N
1579031995.9,286046998.1,N
